CDG8002 RKSI-ZSJN

Flight info

Callsign CDG8002
Flight time 1h 21m
Altitude 34000
Route BINIL3H BINIL Y697 AGAVO/K0830S1040 A591 IKEKA W4 BASOV BASOV6W
Aircraft B738/M-SDFGHIRWY/LB1

Departure

Time 2026-04-23 22:23
Airport Incheon International Airport (RKSI)

Arrival

Time 2026-04-23 23:45
Airport Jinan Yaoqiang International Airport (ZSJN)
Time Latitude Longitude Altitude Speed Heading
2026-04-23 21:58 37.45096 126.44529 28 ft 0 kts 141°
2026-04-23 22:10 37.45097 126.44528 28 ft 0 kts 141°
2026-04-23 22:10 37.45108 126.44518 28 ft 2 kts 141°
2026-04-23 22:10 37.45119 126.44506 28 ft 2 kts 141°
2026-04-23 22:11 37.45131 126.44494 28 ft 2 kts 141°
2026-04-23 22:11 37.45143 126.44482 28 ft 2 kts 141°
2026-04-23 22:11 37.45155 126.44470 28 ft 2 kts 141°
2026-04-23 22:11 37.45167 126.44460 28 ft 2 kts 167°
2026-04-23 22:12 37.45182 126.44460 28 ft 2 kts 200°
2026-04-23 22:12 37.45193 126.44469 28 ft 0 kts 230°
2026-04-23 22:12 37.45197 126.44476 28 ft 1 kts 236°
2026-04-23 22:12 37.45198 126.44477 28 ft 0 kts 234°
2026-04-23 22:15 37.45197 126.44476 28 ft 1 kts 234°
2026-04-23 22:15 37.45172 126.44432 28 ft 9 kts 233°
2026-04-23 22:15 37.45129 126.44357 28 ft 12 kts 234°
2026-04-23 22:15 37.45073 126.44257 28 ft 15 kts 234°
2026-04-23 22:16 37.45008 126.44143 28 ft 11 kts 234°
2026-04-23 22:16 37.44960 126.44058 28 ft 13 kts 234°
2026-04-23 22:16 37.44910 126.43958 28 ft 10 kts 262°
2026-04-23 22:16 37.44969 126.43874 28 ft 16 kts 324°
2026-04-23 22:17 37.45075 126.43780 28 ft 21 kts 325°
2026-04-23 22:17 37.45211 126.43658 28 ft 26 kts 324°
2026-04-23 22:17 37.45367 126.43519 28 ft 27 kts 324°
2026-04-23 22:17 37.45524 126.43380 28 ft 27 kts 324°
2026-04-23 22:18 37.45681 126.43240 28 ft 26 kts 324°
2026-04-23 22:18 37.45835 126.43102 28 ft 27 kts 324°
2026-04-23 22:18 37.45997 126.42958 28 ft 29 kts 324°
2026-04-23 22:18 37.46156 126.42817 28 ft 27 kts 324°
2026-04-23 22:19 37.46314 126.42677 28 ft 27 kts 324°
2026-04-23 22:19 37.46459 126.42546 28 ft 22 kts 323°
2026-04-23 22:19 37.46589 126.42432 28 ft 23 kts 324°
2026-04-23 22:19 37.46678 126.42348 28 ft 10 kts 304°
2026-04-23 22:20 37.46677 126.42278 28 ft 6 kts 236°
2026-04-23 22:20 37.46669 126.42264 28 ft 0 kts 233°
2026-04-23 22:21 37.46661 126.42249 28 ft 6 kts 233°
2026-04-23 22:22 37.46617 126.42175 28 ft 6 kts 232°
2026-04-23 22:22 37.46585 126.42175 28 ft 5 kts 152°
2026-04-23 22:22 37.46557 126.42200 28 ft 5 kts 144°
2026-04-23 22:22 37.46440 126.42304 28 ft 51 kts 144°
2026-04-23 22:23 37.45965 126.42728 28 ft 115 kts 144°
2026-04-23 22:23 37.45150 126.43453 29 ft 167 kts 143°
2026-04-23 22:23 37.44184 126.44294 558 ft 171 kts 146°
2026-04-23 22:23 37.43148 126.45038 1240 ft 173 kts 150°
2026-04-23 22:24 37.42087 126.45746 1862 ft 173 kts 149°
2026-04-23 22:24 37.41041 126.46500 2335 ft 176 kts 147°
2026-04-23 22:24 37.39984 126.47319 2790 ft 181 kts 146°
2026-04-23 22:24 37.38917 126.48161 3261 ft 184 kts 147°
2026-04-23 22:25 37.37687 126.48856 3471 ft 206 kts 162°
2026-04-23 22:25 37.36249 126.49292 3840 ft 219 kts 165°
2026-04-23 22:25 37.34692 126.49751 4152 ft 237 kts 163°
2026-04-23 22:25 37.33049 126.50292 4533 ft 250 kts 162°
2026-04-23 22:26 37.31292 126.50895 4882 ft 266 kts 163°
2026-04-23 22:26 37.29439 126.51356 5390 ft 275 kts 174°
2026-04-23 22:26 37.27515 126.51019 5935 ft 284 kts 201°
2026-04-23 22:26 37.25865 126.49679 6555 ft 287 kts 222°
2026-04-23 22:27 37.24409 126.47920 7238 ft 289 kts 224°
2026-04-23 22:27 37.22949 126.46149 7866 ft 294 kts 223°
2026-04-23 22:27 37.21436 126.44350 8560 ft 296 kts 223°
2026-04-23 22:27 37.19923 126.42571 9216 ft 300 kts 223°
2026-04-23 22:28 37.18376 126.40757 9918 ft 303 kts 223°
2026-04-23 22:28 37.16808 126.38918 10461 ft 312 kts 223°
2026-04-23 22:28 37.15191 126.37024 10843 ft 327 kts 223°
2026-04-23 22:28 37.13464 126.35000 11205 ft 342 kts 223°
2026-04-23 22:29 37.11813 126.32740 11598 ft 355 kts 234°
2026-04-23 22:29 37.10705 126.29999 12249 ft 357 kts 254°
2026-04-23 22:29 37.10329 126.26918 12948 ft 358 kts 270°
2026-04-23 22:29 37.10296 126.23784 13660 ft 361 kts 272°
2026-04-23 22:30 37.10297 126.20619 14367 ft 365 kts 272°
2026-04-23 22:30 37.10296 126.17450 15117 ft 367 kts 271°
2026-04-23 22:30 37.10297 126.14188 15754 ft 373 kts 272°
2026-04-23 22:30 37.10468 126.10951 16465 ft 374 kts 279°
2026-04-23 22:31 37.11012 126.07777 17117 ft 375 kts 288°
2026-04-23 22:31 37.11874 126.04700 17750 ft 378 kts 293°
2026-04-23 22:31 37.12900 126.01635 18385 ft 381 kts 295°
2026-04-23 22:31 37.13996 125.98570 19033 ft 384 kts 295°
2026-04-23 22:32 37.15093 125.95531 19666 ft 387 kts 295°
2026-04-23 22:32 37.16206 125.92406 20283 ft 390 kts 295°
2026-04-23 22:32 37.17297 125.89302 20889 ft 393 kts 295°
2026-04-23 22:32 37.18407 125.86114 21482 ft 396 kts 295°
2026-04-23 22:33 37.19498 125.82956 22038 ft 399 kts 295°
2026-04-23 22:33 37.20610 125.79723 22610 ft 402 kts 294°
2026-04-23 22:33 37.21723 125.76478 23146 ft 405 kts 295°
2026-04-23 22:33 37.22824 125.73258 23690 ft 407 kts 294°
2026-04-23 22:34 37.23941 125.69985 24249 ft 409 kts 294°
2026-04-23 22:34 37.25071 125.66670 24753 ft 412 kts 294°
2026-04-23 22:34 37.26192 125.63374 25313 ft 412 kts 294°
2026-04-23 22:34 37.27317 125.60066 25803 ft 415 kts 294°
2026-04-23 22:35 37.28447 125.56735 26331 ft 416 kts 294°
2026-04-23 22:35 37.29579 125.53395 26847 ft 417 kts 294°
2026-04-23 22:35 37.30718 125.50033 27246 ft 421 kts 294°
2026-04-23 22:35 37.31852 125.46680 27712 ft 423 kts 294°
2026-04-23 22:36 37.33012 125.43249 28125 ft 425 kts 294°
2026-04-23 22:36 37.34182 125.39782 28564 ft 428 kts 293°
2026-04-23 22:36 37.35338 125.36350 28969 ft 430 kts 294°
2026-04-23 22:36 37.36512 125.32863 29384 ft 432 kts 293°
2026-04-23 22:37 37.37683 125.29353 29800 ft 434 kts 292°
2026-04-23 22:37 37.38697 125.25721 30169 ft 437 kts 286°
2026-04-23 22:37 37.39375 125.22043 30718 ft 434 kts 280°
2026-04-23 22:37 37.39721 125.18269 31308 ft 430 kts 274°
2026-04-23 22:38 37.39804 125.14567 31764 ft 428 kts 270°
2026-04-23 22:38 37.39749 125.10826 32212 ft 426 kts 269°
2026-04-23 22:38 37.39636 125.07127 32572 ft 427 kts 268°
2026-04-23 22:38 37.39507 125.03366 32947 ft 426 kts 268°
2026-04-23 22:39 37.39385 124.99654 33348 ft 424 kts 268°
2026-04-23 22:39 37.39275 124.95933 33746 ft 421 kts 268°
2026-04-23 22:39 37.39177 124.92233 33941 ft 422 kts 269°
2026-04-23 22:39 37.39088 124.88556 33943 ft 421 kts 269°
2026-04-23 22:40 37.38927 124.81184 33955 ft 418 kts 269°
2026-04-23 22:41 37.38691 124.70108 33949 ft 420 kts 269°
2026-04-23 22:41 37.38531 124.62691 33963 ft 421 kts 269°
2026-04-23 22:42 37.38366 124.55353 33939 ft 420 kts 269°
2026-04-23 22:42 37.38186 124.47945 33966 ft 422 kts 268°
2026-04-23 22:43 37.37150 124.40668 33951 ft 425 kts 251°
2026-04-23 22:43 37.34368 124.34026 33950 ft 428 kts 240°
2026-04-23 22:44 37.31165 124.27730 33952 ft 428 kts 239°
2026-04-23 22:44 37.27920 124.21465 33932 ft 425 kts 239°
2026-04-23 22:45 37.24703 124.15185 33950 ft 427 kts 239°
2026-04-23 22:45 37.21463 124.08903 33962 ft 426 kts 238°
2026-04-23 22:46 37.18169 124.02745 33950 ft 425 kts 238°
2026-04-23 22:46 37.14827 123.96501 33960 ft 428 kts 239°
2026-04-23 22:47 37.11591 123.90260 33976 ft 426 kts 239°
2026-04-23 22:47 37.08367 123.83988 33975 ft 428 kts 239°
2026-04-23 22:48 37.05117 123.77683 33983 ft 425 kts 239°
2026-04-23 22:48 37.01873 123.71407 34049 ft 428 kts 239°
2026-04-23 22:49 36.98631 123.65155 34050 ft 424 kts 239°
2026-04-23 22:49 36.95375 123.58892 34040 ft 427 kts 239°
2026-04-23 22:50 36.92136 123.52674 34048 ft 426 kts 239°
2026-04-23 22:50 36.88881 123.46438 34052 ft 426 kts 239°
2026-04-23 22:51 36.86003 123.39999 34049 ft 425 kts 251°
2026-04-23 22:51 36.85188 123.36418 34034 ft 423 kts 262°
2026-04-23 22:51 36.84888 123.32758 34053 ft 419 kts 269°
2026-04-23 22:52 36.85406 123.25496 34057 ft 417 kts 282°
2026-04-23 22:52 36.86945 123.18536 34067 ft 418 kts 288°
2026-04-23 22:53 36.88743 123.11575 34037 ft 418 kts 288°
2026-04-23 22:53 36.90520 123.04598 34060 ft 419 kts 288°
2026-04-23 22:54 36.92242 122.97626 34041 ft 422 kts 287°
2026-04-23 22:54 36.93949 122.90572 34062 ft 423 kts 287°
2026-04-23 22:55 36.95642 122.83496 34054 ft 421 kts 288°
2026-04-23 22:55 36.97321 122.76437 34049 ft 424 kts 288°
2026-04-23 22:56 36.98996 122.69369 34052 ft 423 kts 288°
2026-04-23 22:56 37.00678 122.62253 34052 ft 422 kts 288°
2026-04-23 22:57 37.02336 122.55211 34029 ft 423 kts 288°
2026-04-23 22:57 37.04003 122.48117 34045 ft 425 kts 288°
2026-04-23 22:58 37.05664 122.41026 34060 ft 424 kts 288°
2026-04-23 22:58 37.07840 122.34197 34049 ft 421 kts 302°
2026-04-23 22:58 37.09609 122.31231 34043 ft 422 kts 313°
2026-04-23 22:59 37.11757 122.28694 34044 ft 422 kts 320°
2026-04-23 22:59 37.16307 122.24049 34045 ft 420 kts 317°
2026-04-23 22:59 37.18261 122.21235 34042 ft 423 kts 304°
2026-04-23 23:00 37.19635 122.18011 34046 ft 424 kts 294°
2026-04-23 23:00 37.21632 122.10949 34035 ft 427 kts 289°
2026-04-23 23:01 37.23421 122.03765 34048 ft 427 kts 288°
2026-04-23 23:01 37.25207 121.96606 34043 ft 428 kts 289°
2026-04-23 23:02 37.27012 121.89489 34038 ft 426 kts 289°
2026-04-23 23:02 37.28845 121.82316 34043 ft 427 kts 289°
2026-04-23 23:03 37.30662 121.75218 34042 ft 428 kts 289°
2026-04-23 23:03 37.32492 121.68056 34041 ft 427 kts 289°
2026-04-23 23:04 37.34315 121.60904 34040 ft 427 kts 289°
2026-04-23 23:04 37.36122 121.53792 34023 ft 428 kts 289°
2026-04-23 23:05 37.37948 121.46588 34028 ft 429 kts 290°
2026-04-23 23:05 37.39749 121.39460 34024 ft 428 kts 289°
2026-04-23 23:06 37.41561 121.32268 34019 ft 428 kts 289°
2026-04-23 23:06 37.43374 121.25048 33999 ft 427 kts 289°
2026-04-23 23:07 37.45181 121.17841 34017 ft 427 kts 289°
2026-04-23 23:07 37.47245 121.10740 34023 ft 427 kts 293°
2026-04-23 23:08 37.49500 121.03855 34014 ft 426 kts 294°
2026-04-23 23:08 37.51791 120.96883 34015 ft 425 kts 294°
2026-04-23 23:09 37.54039 120.89928 34022 ft 427 kts 294°
2026-04-23 23:09 37.56247 120.83002 34014 ft 427 kts 293°
2026-04-23 23:10 37.58092 120.77171 34023 ft 426 kts 293°
2026-04-23 23:10 37.60719 120.68996 34018 ft 426 kts 294°
2026-04-23 23:10 37.61872 120.65501 34122 ft 430 kts 294°
2026-04-23 23:11 37.63023 120.62026 34115 ft 429 kts 294°
2026-04-23 23:11 37.64933 120.54911 34116 ft 426 kts 282°
2026-04-23 23:12 37.65173 120.47384 34123 ft 432 kts 269°
2026-04-23 23:12 37.64660 120.39777 34117 ft 431 kts 266°
2026-04-23 23:13 37.64038 120.32166 34112 ft 433 kts 266°
2026-04-23 23:13 37.63444 120.24624 34118 ft 433 kts 266°
2026-04-23 23:14 37.62874 120.17039 34118 ft 432 kts 266°
2026-04-23 23:14 37.62317 120.09466 34121 ft 432 kts 266°
2026-04-23 23:15 37.61761 120.01875 34119 ft 432 kts 266°
2026-04-23 23:15 37.61234 119.94713 34115 ft 431 kts 266°
2026-04-23 23:16 37.60675 119.87177 34115 ft 432 kts 266°
2026-04-23 23:16 37.60112 119.79646 34112 ft 431 kts 266°
2026-04-23 23:17 37.59541 119.72089 34110 ft 433 kts 266°
2026-04-23 23:17 37.58971 119.64508 34109 ft 432 kts 267°
2026-04-23 23:18 37.58448 119.56889 34106 ft 432 kts 267°
2026-04-23 23:18 37.57954 119.49329 34104 ft 431 kts 267°
2026-04-23 23:19 37.57438 119.41781 34102 ft 430 kts 267°
2026-04-23 23:19 37.56903 119.34170 34100 ft 431 kts 266°
2026-04-23 23:20 37.56370 119.26699 34101 ft 433 kts 266°
2026-04-23 23:20 37.55823 119.19097 34100 ft 432 kts 266°
2026-04-23 23:21 37.55270 119.11487 34093 ft 431 kts 266°
2026-04-23 23:21 37.54716 119.03931 34096 ft 432 kts 266°
2026-04-23 23:22 37.54156 118.96357 34100 ft 432 kts 266°
2026-04-23 23:22 37.53595 118.88821 34092 ft 432 kts 266°
2026-04-23 23:23 37.53028 118.81283 34097 ft 432 kts 266°
2026-04-23 23:23 37.52352 118.73712 34088 ft 432 kts 264°
2026-04-23 23:24 37.51414 118.66235 33832 ft 426 kts 262°
2026-04-23 23:24 37.50928 118.62580 33247 ft 425 kts 262°
2026-04-23 23:24 37.50437 118.58890 32658 ft 423 kts 262°
2026-04-23 23:24 37.49964 118.55292 32162 ft 420 kts 263°
2026-04-23 23:25 37.49490 118.51649 31603 ft 417 kts 263°
2026-04-23 23:25 37.49110 118.48705 31387 ft 410 kts 263°
2026-04-23 23:25 37.48662 118.45211 31372 ft 403 kts 263°
2026-04-23 23:25 37.48220 118.41759 30565 ft 404 kts 263°
2026-04-23 23:26 37.47773 118.38240 29532 ft 403 kts 263°
2026-04-23 23:26 37.47333 118.34779 28662 ft 399 kts 263°
2026-04-23 23:26 37.46900 118.31379 27798 ft 395 kts 262°
2026-04-23 23:26 37.46465 118.27972 26962 ft 389 kts 262°
2026-04-23 23:27 37.46043 118.24670 26150 ft 384 kts 262°
2026-04-23 23:27 37.45622 118.21388 25319 ft 380 kts 262°
2026-04-23 23:27 37.45210 118.18128 24501 ft 375 kts 263°
2026-04-23 23:27 37.44810 118.14913 23706 ft 370 kts 263°
2026-04-23 23:28 37.44417 118.11734 22920 ft 366 kts 263°
2026-04-23 23:28 37.44029 118.08592 22150 ft 362 kts 263°
2026-04-23 23:28 37.43645 118.05496 21372 ft 358 kts 263°
2026-04-23 23:28 37.43263 118.02416 20582 ft 354 kts 263°
2026-04-23 23:29 37.42886 117.99401 19826 ft 351 kts 263°
2026-04-23 23:29 37.42507 117.96372 19076 ft 346 kts 263°
2026-04-23 23:29 37.42135 117.93411 18324 ft 342 kts 263°
2026-04-23 23:29 37.41832 117.91003 17715 ft 339 kts 263°
2026-04-23 23:30 37.41588 117.89069 17236 ft 336 kts 263°
2026-04-23 23:30 37.41226 117.86201 16508 ft 333 kts 262°
2026-04-23 23:30 37.40868 117.83371 15787 ft 329 kts 262°
2026-04-23 23:30 37.40507 117.80523 15050 ft 326 kts 262°
2026-04-23 23:31 37.40155 117.77753 14334 ft 322 kts 262°
2026-04-23 23:31 37.39805 117.75003 13629 ft 319 kts 262°
2026-04-23 23:31 37.39456 117.72271 13008 ft 312 kts 262°
2026-04-23 23:31 37.39118 117.69632 12588 ft 301 kts 262°
2026-04-23 23:32 37.38783 117.67021 12169 ft 300 kts 262°
2026-04-23 23:32 37.38446 117.64387 11779 ft 310 kts 262°
2026-04-23 23:32 37.38102 117.61701 11275 ft 314 kts 262°
2026-04-23 23:32 37.37757 117.59028 10842 ft 311 kts 262°
2026-04-23 23:33 37.37410 117.56338 10404 ft 309 kts 262°
2026-04-23 23:33 37.37070 117.53716 10145 ft 301 kts 262°
2026-04-23 23:33 37.36740 117.51187 9999 ft 289 kts 262°
2026-04-23 23:33 37.36409 117.48723 9657 ft 286 kts 261°
2026-04-23 23:34 37.36074 117.46270 9275 ft 284 kts 261°
2026-04-23 23:34 37.35739 117.43835 8915 ft 282 kts 261°
2026-04-23 23:34 37.35332 117.41410 8543 ft 279 kts 254°
2026-04-23 23:34 37.34663 117.39140 8190 ft 277 kts 248°
2026-04-23 23:35 37.33861 117.36955 7836 ft 275 kts 245°
2026-04-23 23:35 37.33033 117.34782 7480 ft 272 kts 245°
2026-04-23 23:35 37.32233 117.32637 7131 ft 270 kts 246°
2026-04-23 23:35 37.31459 117.30509 6774 ft 268 kts 246°
2026-04-23 23:36 37.30693 117.28370 6475 ft 263 kts 246°
2026-04-23 23:36 37.29959 117.26313 6353 ft 253 kts 246°
2026-04-23 23:36 37.29251 117.24360 6277 ft 241 kts 244°
2026-04-23 23:36 37.28360 117.22636 6190 ft 231 kts 226°
2026-04-23 23:37 37.27003 117.21639 5993 ft 230 kts 195°
2026-04-23 23:37 37.25401 117.21478 5739 ft 231 kts 182°
2026-04-23 23:37 37.23776 117.21549 5454 ft 230 kts 182°
2026-04-23 23:37 37.22184 117.21590 5200 ft 227 kts 183°
2026-04-23 23:38 37.20612 117.21600 4954 ft 224 kts 184°
2026-04-23 23:38 37.19057 117.21599 4708 ft 221 kts 184°
2026-04-23 23:38 37.17514 117.21596 4463 ft 218 kts 184°
2026-04-23 23:38 37.16005 117.21596 4226 ft 216 kts 184°
2026-04-23 23:39 37.14517 117.21596 3990 ft 213 kts 184°
2026-04-23 23:39 37.13026 117.21597 3760 ft 211 kts 184°
2026-04-23 23:39 37.11563 117.21597 3553 ft 207 kts 184°
2026-04-23 23:39 37.10130 117.21597 3367 ft 206 kts 185°
2026-04-23 23:40 37.08702 117.21597 3253 ft 203 kts 185°
2026-04-23 23:40 37.07271 117.21596 3209 ft 204 kts 185°
2026-04-23 23:40 37.05858 117.21596 3152 ft 205 kts 185°
2026-04-23 23:40 37.04434 117.21597 3087 ft 203 kts 185°
2026-04-23 23:41 37.03011 117.21597 2826 ft 208 kts 185°
2026-04-23 23:41 37.01513 117.21593 2238 ft 219 kts 184°
2026-04-23 23:41 37.00010 117.21597 1959 ft 212 kts 184°
2026-04-23 23:41 36.98586 117.21606 1969 ft 194 kts 185°
2026-04-23 23:42 36.97319 117.21606 1973 ft 168 kts 186°
2026-04-23 23:42 36.96183 117.21602 1832 ft 157 kts 186°
2026-04-23 23:42 36.95116 117.21598 1636 ft 148 kts 186°
2026-04-23 23:42 36.94070 117.21596 1429 ft 150 kts 185°
2026-04-23 23:43 36.93071 117.21602 1220 ft 141 kts 185°
2026-04-23 23:43 36.92114 117.21601 1025 ft 134 kts 184°
2026-04-23 23:43 36.91158 117.21598 865 ft 139 kts 184°
2026-04-23 23:43 36.90185 117.21610 684 ft 139 kts 182°
2026-04-23 23:44 36.89274 117.21620 482 ft 139 kts 183°
2026-04-23 23:44 36.88300 117.21609 300 ft 140 kts 183°
2026-04-23 23:44 36.87313 117.21600 113 ft 141 kts 182°
2026-04-23 23:44 36.86400 117.21600 83 ft 107 kts 181°
2026-04-23 23:45 36.85880 117.21600 83 ft 53 kts 180°
2026-04-23 23:45 36.85587 117.21573 83 ft 29 kts 197°
2026-04-23 23:45 36.85442 117.21489 83 ft 17 kts 209°
2026-04-23 23:45 36.85394 117.21395 83 ft 15 kts 271°
2026-04-23 23:46 36.85384 117.21282 83 ft 12 kts 245°
2026-04-23 23:46 36.85337 117.21156 83 ft 19 kts 244°
2026-04-23 23:46 36.85332 117.21059 83 ft 12 kts 320°
2026-04-23 23:46 36.85404 117.21013 83 ft 9 kts 335°
2026-04-23 23:47 36.85428 117.20999 83 ft 1 kts 335°
2026-04-23 23:47 36.85431 117.20997 83 ft 0 kts 335°